SAS1415 EDDP-EKCH

Flight info

Callsign SAS1415
Flight time 0h 48m
Altitude 32000
Route PENEM1N PENEM Y233 ODLUN Z207 MAG M736 SOGMA DCT NOBRI M726 ROSOK Q296 MONAK
Aircraft A21N/M-SDE2E3FGHIRWXY/LB1

Departure

Time 2026-05-04 22:09
Airport Leipzig/Halle Airport (EDDP)

Arrival

Time 2026-05-04 22:57
Airport Copenhagen Kastrup Airport (EKCH)
Time Latitude Longitude Altitude Speed Heading
2026-05-04 21:49 51.41890 12.22108 438 ft 0 kts 15°
2026-05-04 21:53 51.41890 12.22109 445 ft 0 kts 17°
2026-05-04 21:58 51.41884 12.22106 445 ft 4 kts 17°
2026-05-04 21:58 51.41859 12.22092 441 ft 4 kts 21°
2026-05-04 21:58 51.41834 12.22075 447 ft 4 kts 29°
2026-05-04 21:59 51.41813 12.22050 447 ft 4 kts 56°
2026-05-04 21:59 51.41807 12.22023 429 ft 0 kts 105°
2026-05-04 22:01 51.41801 12.22055 447 ft 11 kts 105°
2026-05-04 22:01 51.41772 12.22222 451 ft 19 kts 106°
2026-05-04 22:02 51.41734 12.22450 457 ft 23 kts 105°
2026-05-04 22:02 51.41686 12.22722 463 ft 27 kts 106°
2026-05-04 22:02 51.41632 12.23044 462 ft 32 kts 105°
2026-05-04 22:02 51.41603 12.23416 463 ft 36 kts 86°
2026-05-04 22:03 51.41623 12.23829 466 ft 39 kts 85°
2026-05-04 22:03 51.41644 12.24280 475 ft 40 kts 85°
2026-05-04 22:03 51.41662 12.24654 475 ft 20 kts 86°
2026-05-04 22:03 51.41728 12.24800 474 ft 16 kts 16°
2026-05-04 22:04 51.41868 12.24854 479 ft 28 kts 13°
2026-05-04 22:04 51.42057 12.24927 486 ft 27 kts 13°
2026-05-04 22:04 51.42242 12.24996 478 ft 28 kts 13°
2026-05-04 22:04 51.42442 12.25072 474 ft 31 kts 13°
2026-05-04 22:05 51.42659 12.25153 463 ft 33 kts 12°
2026-05-04 22:05 51.42891 12.25241 451 ft 27 kts 13°
2026-05-04 22:05 51.42995 12.25388 453 ft 20 kts 85°
2026-05-04 22:05 51.43005 12.25646 452 ft 28 kts 85°
2026-05-04 22:06 51.43023 12.26002 454 ft 36 kts 86°
2026-05-04 22:06 51.43040 12.26421 455 ft 37 kts 85°
2026-05-04 22:06 51.43058 12.26762 455 ft 28 kts 85°
2026-05-04 22:06 51.43181 12.26915 457 ft 19 kts 358°
2026-05-04 22:07 51.43264 12.26840 458 ft 17 kts 313°
2026-05-04 22:07 51.43339 12.26675 454 ft 20 kts 291°
2026-05-04 22:07 51.43356 12.26522 453 ft 1 kts 268°
2026-05-04 22:07 51.43356 12.26499 453 ft 3 kts 268°
2026-05-04 22:08 51.43355 12.26469 453 ft 0 kts 265°
2026-05-04 22:08 51.43354 12.26453 453 ft 10 kts 265°
2026-05-04 22:08 51.43328 12.25904 452 ft 87 kts 266°
2026-05-04 22:08 51.43266 12.24585 449 ft 148 kts 265°
2026-05-04 22:09 51.43178 12.22689 563 ft 184 kts 266°
2026-05-04 22:09 51.43165 12.20686 1364 ft 178 kts 279°
2026-05-04 22:09 51.43569 12.18844 1969 ft 186 kts 307°
2026-05-04 22:09 51.44613 12.17475 2310 ft 205 kts 330°
2026-05-04 22:10 51.45888 12.16169 2492 ft 229 kts 327°
2026-05-04 22:10 51.47277 12.14674 2960 ft 242 kts 326°
2026-05-04 22:10 51.48683 12.13141 3687 ft 247 kts 326°
2026-05-04 22:10 51.50110 12.11585 4444 ft 249 kts 324°
2026-05-04 22:11 51.51534 12.10037 5215 ft 251 kts 324°
2026-05-04 22:11 51.53077 12.08702 5942 ft 256 kts 340°
2026-05-04 22:11 51.54886 12.08225 6425 ft 275 kts 359°
2026-05-04 22:11 51.56844 12.08313 6952 ft 285 kts 359°
2026-05-04 22:12 51.58835 12.08402 7622 ft 289 kts 359°
2026-05-04 22:12 51.60863 12.08484 8313 ft 294 kts 359°
2026-05-04 22:12 51.62920 12.08559 9006 ft 298 kts 359°
2026-05-04 22:12 51.65009 12.08630 9702 ft 302 kts 358°
2026-05-04 22:13 51.67129 12.08687 10215 ft 312 kts 355°
2026-05-04 22:13 51.69345 12.08164 10348 ft 330 kts 341°
2026-05-04 22:13 51.71490 12.06729 10507 ft 346 kts 327°
2026-05-04 22:13 51.73437 12.04348 10923 ft 350 kts 312°
2026-05-04 22:14 51.75100 12.01435 11484 ft 354 kts 309°
2026-05-04 22:14 51.76740 11.98530 12055 ft 358 kts 310°
2026-05-04 22:14 51.78435 11.95540 12639 ft 362 kts 310°
2026-05-04 22:14 51.80149 11.92515 13226 ft 366 kts 310°
2026-05-04 22:15 51.81875 11.89457 13796 ft 370 kts 310°
2026-05-04 22:15 51.83758 11.86585 14311 ft 376 kts 320°
2026-05-04 22:15 51.85984 11.84343 14844 ft 381 kts 332°
2026-05-04 22:15 51.88482 11.82830 15401 ft 386 kts 343°
2026-05-04 22:16 51.91132 11.81961 15933 ft 389 kts 347°
2026-05-04 22:16 51.93800 11.81154 16482 ft 392 kts 347°
2026-05-04 22:16 51.96492 11.80342 16975 ft 396 kts 347°
2026-05-04 22:16 51.99234 11.79726 17511 ft 400 kts 355°
2026-05-04 22:17 52.02038 11.79844 18022 ft 405 kts
2026-05-04 22:17 52.04847 11.80330 18475 ft 408 kts
2026-05-04 22:17 52.07682 11.80822 18895 ft 411 kts
2026-05-04 22:17 52.10531 11.81316 19319 ft 413 kts
2026-05-04 22:18 52.13402 11.81812 19741 ft 416 kts
2026-05-04 22:18 52.16228 11.82301 20159 ft 419 kts
2026-05-04 22:18 52.19147 11.82806 20561 ft 422 kts
2026-05-04 22:18 52.22086 11.83309 20941 ft 426 kts
2026-05-04 22:19 52.25032 11.83812 21350 ft 428 kts
2026-05-04 22:19 52.28010 11.84328 21764 ft 431 kts
2026-05-04 22:19 52.31001 11.84854 22179 ft 433 kts
2026-05-04 22:19 52.34000 11.85379 22592 ft 435 kts
2026-05-04 22:20 52.37034 11.85905 22996 ft 438 kts
2026-05-04 22:20 52.40074 11.86433 23405 ft 440 kts
2026-05-04 22:20 52.43119 11.86962 23744 ft 444 kts
2026-05-04 22:20 52.46212 11.87498 24056 ft 446 kts
2026-05-04 22:21 52.49304 11.88033 24390 ft 448 kts
2026-05-04 22:21 52.52374 11.88568 24733 ft 450 kts
2026-05-04 22:21 52.55490 11.89115 25083 ft 452 kts
2026-05-04 22:21 52.58627 11.89670 25426 ft 453 kts
2026-05-04 22:22 52.61764 11.89991 25752 ft 451 kts 354°
2026-05-04 22:22 52.64885 11.89545 26087 ft 447 kts 346°
2026-05-04 22:22 52.67888 11.88362 26468 ft 442 kts 337°
2026-05-04 22:22 52.70828 11.86864 26840 ft 443 kts 337°
2026-05-04 22:23 52.73774 11.85370 27195 ft 444 kts 337°
2026-05-04 22:23 52.76746 11.83865 27535 ft 446 kts 337°
2026-05-04 22:23 52.79717 11.82361 27875 ft 447 kts 337°
2026-05-04 22:23 52.82693 11.80851 28198 ft 449 kts 337°
2026-05-04 22:24 52.85687 11.79332 28510 ft 450 kts 337°
2026-05-04 22:24 52.87669 11.78324 28713 ft 451 kts 337°
2026-05-04 22:24 52.90677 11.76796 29001 ft 452 kts 337°
2026-05-04 22:24 52.94677 11.74762 29364 ft 454 kts 337°
2026-05-04 22:25 52.97700 11.73222 29628 ft 455 kts 337°
2026-05-04 22:25 53.00734 11.71671 29882 ft 457 kts 336°
2026-05-04 22:25 53.02755 11.70638 30081 ft 457 kts 336°
2026-05-04 22:25 53.06785 11.68582 30466 ft 456 kts 336°
2026-05-04 22:26 53.08806 11.67550 30636 ft 456 kts 336°
2026-05-04 22:26 53.11835 11.65997 30913 ft 455 kts 336°
2026-05-04 22:26 53.14899 11.64419 31187 ft 455 kts 336°
2026-05-04 22:26 53.17919 11.62854 31474 ft 455 kts 336°
2026-05-04 22:27 53.20971 11.61364 31743 ft 458 kts 341°
2026-05-04 22:27 53.24146 11.60591 31936 ft 466 kts 351°
2026-05-04 22:27 53.27381 11.60734 31974 ft 466 kts
2026-05-04 22:28 53.33711 11.63371 31975 ft 470 kts 11°
2026-05-04 22:28 53.39951 11.66480 31975 ft 470 kts 11°
2026-05-04 22:29 53.46205 11.69578 31970 ft 468 kts 11°
2026-05-04 22:29 53.52437 11.72686 31975 ft 467 kts 11°
2026-05-04 22:30 53.58658 11.75817 31976 ft 467 kts 11°
2026-05-04 22:30 53.64892 11.78970 31979 ft 467 kts 11°
2026-05-04 22:31 53.71110 11.82115 32005 ft 466 kts 11°
2026-05-04 22:31 53.77324 11.85247 32005 ft 465 kts 11°
2026-05-04 22:32 53.83521 11.88396 31976 ft 465 kts 11°
2026-05-04 22:32 53.86617 11.89977 31749 ft 464 kts 11°
2026-05-04 22:32 53.89705 11.91549 31443 ft 465 kts 11°
2026-05-04 22:32 53.92808 11.93130 31159 ft 466 kts 11°
2026-05-04 22:33 53.95914 11.94716 30857 ft 467 kts 11°
2026-05-04 22:33 53.99026 11.96310 30562 ft 469 kts 11°
2026-05-04 22:33 54.02123 11.97899 30277 ft 470 kts 11°
2026-05-04 22:33 54.05255 11.99514 29966 ft 472 kts 11°
2026-05-04 22:34 54.08409 12.01145 29619 ft 472 kts 11°
2026-05-04 22:34 54.11542 12.02766 29269 ft 470 kts 11°
2026-05-04 22:34 54.14656 12.04379 28940 ft 468 kts 11°
2026-05-04 22:34 54.17752 12.05988 28638 ft 464 kts 11°
2026-05-04 22:35 54.20836 12.07592 28309 ft 461 kts 11°
2026-05-04 22:35 54.23900 12.09182 27982 ft 459 kts 11°
2026-05-04 22:35 54.26956 12.10767 27658 ft 457 kts 11°
2026-05-04 22:35 54.29988 12.12341 27341 ft 454 kts 11°
2026-05-04 22:36 54.33006 12.13909 27022 ft 452 kts 11°
2026-05-04 22:36 54.36013 12.15478 26714 ft 451 kts 11°
2026-05-04 22:36 54.39004 12.17044 26408 ft 449 kts 11°
2026-05-04 22:36 54.41973 12.18603 26129 ft 447 kts 11°
2026-05-04 22:37 54.44950 12.20165 25820 ft 446 kts 11°
2026-05-04 22:37 54.47918 12.21726 25523 ft 444 kts 11°
2026-05-04 22:37 54.50869 12.23276 25230 ft 442 kts 11°
2026-05-04 22:37 54.53794 12.24815 24934 ft 440 kts 11°
2026-05-04 22:38 54.56725 12.26362 24652 ft 439 kts 11°
2026-05-04 22:38 54.59632 12.27854 24367 ft 435 kts
2026-05-04 22:38 54.62591 12.28700 24088 ft 425 kts 358°
2026-05-04 22:38 54.65525 12.28952 23833 ft 420 kts 356°
2026-05-04 22:39 54.68442 12.29184 23553 ft 417 kts 356°
2026-05-04 22:39 54.71325 12.29417 23225 ft 414 kts 356°
2026-05-04 22:39 54.74200 12.29652 22893 ft 412 kts 356°
2026-05-04 22:39 54.77060 12.29888 22567 ft 410 kts 356°
2026-05-04 22:40 54.79895 12.30128 22243 ft 408 kts 356°
2026-05-04 22:40 54.82732 12.30368 21922 ft 407 kts 356°
2026-05-04 22:40 54.85555 12.30609 21606 ft 405 kts 357°
2026-05-04 22:40 54.88351 12.30848 21297 ft 403 kts 357°
2026-05-04 22:41 54.91153 12.31096 21013 ft 402 kts 360°
2026-05-04 22:41 54.93928 12.31972 20699 ft 407 kts 12°
2026-05-04 22:41 54.96555 12.33832 20383 ft 410 kts 25°
2026-05-04 22:41 54.98967 12.36515 20099 ft 411 kts 31°
2026-05-04 22:42 55.01299 12.39268 19805 ft 410 kts 31°
2026-05-04 22:42 55.03660 12.42029 19506 ft 408 kts 30°
2026-05-04 22:42 55.06040 12.44802 19213 ft 406 kts 30°
2026-05-04 22:42 55.08348 12.47492 18928 ft 404 kts 31°
2026-05-04 22:43 55.10678 12.50208 18637 ft 402 kts 31°
2026-05-04 22:43 55.12998 12.52915 18356 ft 400 kts 31°
2026-05-04 22:43 55.15299 12.55617 18072 ft 395 kts 31°
2026-05-04 22:43 55.17542 12.58270 17751 ft 384 kts 31°
2026-05-04 22:44 55.19732 12.60866 17420 ft 374 kts 31°
2026-05-04 22:44 55.21869 12.63394 17103 ft 365 kts 30°
2026-05-04 22:44 55.24067 12.65430 16787 ft 351 kts 15°
2026-05-04 22:44 55.26343 12.66729 16472 ft 341 kts 13°
2026-05-04 22:45 55.28592 12.68000 16084 ft 337 kts 13°
2026-05-04 22:45 55.33031 12.70543 15093 ft 336 kts 13°
2026-05-04 22:45 55.35251 12.71812 14557 ft 337 kts 13°
2026-05-04 22:46 55.37488 12.73087 14028 ft 337 kts 13°
2026-05-04 22:46 55.39698 12.74346 13413 ft 332 kts 13°
2026-05-04 22:46 55.41884 12.75595 12723 ft 329 kts 13°
2026-05-04 22:46 55.44051 12.76838 12049 ft 326 kts 13°
2026-05-04 22:47 55.46197 12.78072 11386 ft 323 kts 14°
2026-05-04 22:47 55.48320 12.79294 10737 ft 320 kts 14°
2026-05-04 22:47 55.50432 12.80513 10089 ft 317 kts 14°
2026-05-04 22:47 55.52515 12.81716 9431 ft 314 kts 14°
2026-05-04 22:48 55.54582 12.82909 8748 ft 311 kts 14°
2026-05-04 22:48 55.56619 12.84130 8087 ft 309 kts 16°
2026-05-04 22:48 55.58622 12.85494 7433 ft 307 kts 18°
2026-05-04 22:48 55.60591 12.86925 6780 ft 305 kts 19°
2026-05-04 22:49 55.62512 12.88496 6140 ft 304 kts 28°
2026-05-04 22:49 55.64175 12.90810 5478 ft 304 kts 40°
2026-05-04 22:49 55.65740 12.93315 4844 ft 305 kts 39°
2026-05-04 22:49 55.67301 12.95753 4451 ft 300 kts 39°
2026-05-04 22:50 55.68866 12.98171 4062 ft 296 kts 39°
2026-05-04 22:50 55.70417 13.00589 3668 ft 292 kts 39°
2026-05-04 22:50 55.72088 13.02433 3290 ft 282 kts 15°
2026-05-04 22:50 55.73998 13.02701 3007 ft 268 kts 347°
2026-05-04 22:51 55.75629 13.01563 2997 ft 246 kts 323°
2026-05-04 22:51 55.76788 12.99534 2997 ft 225 kts 301°
2026-05-04 22:51 55.77380 12.97106 2997 ft 206 kts 282°
2026-05-04 22:51 55.77679 12.94718 2991 ft 189 kts 282°
2026-05-04 22:52 55.77764 12.92559 3433 ft 160 kts 261°
2026-05-04 22:52 55.77388 12.90548 3559 ft 175 kts 244°
2026-05-04 22:52 55.76654 12.88823 3560 ft 179 kts 226°
2026-05-04 22:52 55.75729 12.87336 3479 ft 179 kts 225°
2026-05-04 22:53 55.74805 12.85872 3282 ft 179 kts 224°
2026-05-04 22:53 55.73887 12.84431 3044 ft 169 kts 224°
2026-05-04 22:53 55.73030 12.83092 2839 ft 161 kts 224°
2026-05-04 22:53 55.72199 12.81793 2612 ft 155 kts 225°
2026-05-04 22:54 55.71420 12.80578 2413 ft 145 kts 224°
2026-05-04 22:54 55.70667 12.79401 2217 ft 144 kts 225°
2026-05-04 22:54 55.69920 12.78235 2021 ft 143 kts 225°
2026-05-04 22:54 55.69170 12.77066 1814 ft 144 kts 225°
2026-05-04 22:55 55.68423 12.75902 1634 ft 144 kts 225°
2026-05-04 22:55 55.67673 12.74735 1429 ft 143 kts 225°
2026-05-04 22:55 55.66929 12.73579 1237 ft 142 kts 226°
2026-05-04 22:55 55.66186 12.72422 1042 ft 142 kts 225°
2026-05-04 22:56 55.65444 12.71269 836 ft 142 kts 224°
2026-05-04 22:56 55.64705 12.70122 636 ft 141 kts 224°
2026-05-04 22:56 55.63982 12.68998 431 ft 142 kts 224°
2026-05-04 22:56 55.63226 12.67826 246 ft 142 kts 223°
2026-05-04 22:57 55.62495 12.66695 60 ft 141 kts 223°
2026-05-04 22:57 55.61816 12.65629 21 ft 118 kts 221°
2026-05-04 22:57 55.61390 12.64976 19 ft 46 kts 221°
2026-05-04 22:57 55.61238 12.64544 17 ft 25 kts 251°
2026-05-04 22:58 55.61200 12.64325 18 ft 19 kts 251°
2026-05-04 22:58 55.61200 12.64126 19 ft 13 kts 308°
2026-05-04 22:58 55.61277 12.64114 17 ft 12 kts 19°
2026-05-04 22:58 55.61366 12.64211 17 ft 20 kts 35°
2026-05-04 22:59 55.61507 12.64376 18 ft 29 kts 33°
2026-05-04 22:59 55.61697 12.64591 17 ft 30 kts 33°
2026-05-04 22:59 55.61875 12.64799 17 ft 31 kts 31°
2026-05-04 22:59 55.62056 12.65007 18 ft 31 kts 33°
2026-05-04 23:00 55.62232 12.65189 17 ft 12 kts 11°
2026-05-04 23:00 55.62277 12.65198 17 ft 0 kts
2026-05-04 23:00 55.62280 12.65196 17 ft 1 kts 347°
2026-05-04 23:00 55.62273 12.65140 17 ft 11 kts 256°
2026-05-04 23:01 55.62339 12.64896 18 ft 31 kts 303°
2026-05-04 23:01 55.62421 12.64690 17 ft 16 kts 322°
2026-05-04 23:01 55.62523 12.64651 17 ft 6 kts 358°
2026-05-04 23:01 55.62576 12.64648 17 ft 9 kts
2026-05-04 23:02 55.62640 12.64665 17 ft 10 kts 14°
2026-05-04 23:02 55.62684 12.64639 18 ft 6 kts 292°
2026-05-04 23:02 55.62695 12.64597 18 ft 0 kts 287°
2026-05-04 23:02 55.62695 12.64587 17 ft 2 kts 281°
2026-05-04 23:03 55.62696 12.64584 17 ft 0 kts 281°
2026-05-04 23:10 55.62695 12.64584 17 ft 0 kts 282°